[[{"header":{"parameterUnit":"m.s-1","parameterCategory":1,"la1":30.2991,"la2":30.254,"lo1":-89.0895,"lo2":-89.0444,"dx":0.0017,"dy":0.0017,"nx":28,"ny":28,"refTime":"2022-12-12T03:00:00:Z","depth":0,"parameterNumber":2,"parameterNumberName":"U-component_of_WINDS"},"data":[0,0,0,0,0,0,0,0,0,0,0,0,0,0,0,0,0,0,0,0,0,0,0,0,0,0,0,0,0,0,0,0,0,0,0,0,0,0,0,0,0,0,0,0,0,0,0,0,0,0,0,0,0,0,0,0,0,0,-1.1209,-1.1209,0,-1.1245,-1.1245,-1.1246,-1.1286,-1.1287,-1.1287,-1.1288,-1.1324,-1.1325,-1.1325,0,0,0,0,0,0,0,0,0,0,0,0,0,-1.1172,-1.1173,-1.1209,-1.1209,-1.121,-1.1245,-1.1245,-1.1246,-1.1286,-1.1287,-1.1287,-1.1288,-1.1324,-1.1325,-1.1325,0,0,0,0,0,0,0,0,0,0,0,0,0,-1.1196,-1.1173,-1.1209,-1.1234,-1.1236,-1.1245,-1.1245,-1.1246,-1.1286,-1.1287,-1.1288,-1.1288,-1.1324,-1.1325,-1.1325,-1.1311,0,0,-1.1327,-1.1327,0,0,0,0,0,0,0,0,-1.1195,-1.1197,-1.123,-1.1232,-1.1235,-1.1262,-1.1246,-1.1268,-1.1286,-1.1267,-1.1288,-1.1289,-1.1303,-1.1305,-1.131,-1.1313,-1.1315,-1.1327,-1.1327,-1.1328,-1.1328,0,0,0,0,0,0,0,-1.1193,-1.1196,-1.1223,-1.123,-1.1233,-1.1243,-1.1247,-1.125,-1.1279,-1.1269,-1.1272,-1.1276,-1.1304,-1.1309,-1.1311,-1.1315,-1.1327,-1.1328,-1.1328,-1.1328,-1.1306,-1.1305,0,0,0,0,0,0,-1.1188,-1.1195,-1.1222,-1.1224,-1.1217,-1.1243,-1.1248,-1.1252,-1.128,-1.1285,-1.1275,-1.1277,-1.1308,-1.131,-1.1313,-1.1295,-1.1328,-1.1328,-1.1329,-1.1306,-1.1305,-1.1304,0,0,0,0,0,0,-1.1187,-1.119,-1.122,-1.121,-1.1215,-1.1242,-1.1247,-1.1253,-1.1258,-1.1284,-1.1289,-1.1274,-1.1309,-1.1312,-1.1311,-1.1297,-1.1329,-1.1329,-1.1308,-1.1306,-1.1305,-1.1263,0,0,0,0,0,0,-1.1186,-1.1189,-1.1185,-1.121,-1.1215,-1.1218,-1.1247,-1.1253,-1.1259,-1.1262,-1.1285,-1.129,-1.131,-1.1309,-1.1311,-1.1299,-1.133,-1.1309,-1.1307,-1.1305,-1.1265,-1.126,-1.1255,0,0,0,0,0,-1.1184,-1.1172,-1.1184,-1.1187,-1.121,-1.1217,-1.122,-1.1244,-1.1258,-1.1252,-1.1269,-1.1289,-1.1299,-1.1309,-1.1311,-1.1299,-1.131,-1.1308,-1.1305,-1.1268,-1.1261,-1.1255,0,0,0,0,0,0,-1.1145,-1.1176,-1.119,-1.1185,-1.1198,-1.1224,-1.1219,-1.1236,-1.1246,-1.1248,-1.1277,-1.1282,-1.1276,-1.1288,-1.1299,-1.1286,-1.1307,-1.1305,-1.1278,-1.1272,-1.1267,-1.1263,-1.133,0,0,0,0,0,-1.1136,-1.114,-1.1166,-1.116,-1.1166,-1.1191,-1.1195,-1.1212,-1.1226,-1.1232,-1.1249,-1.1262,-1.1267,-1.1271,-1.1278,-1.1268,-1.1272,-1.1261,-1.1256,-1.1251,-1.1249,-1.1241,-1.1235,-1.1297,-1.1297,-1.1297,0,0,-1.1117,-1.1134,-1.1135,-1.1152,-1.1164,-1.1166,-1.1195,-1.1197,-1.1198,-1.1232,-1.1231,-1.1244,-1.126,-1.1254,-1.1252,-1.1264,-1.1233,-1.1249,-1.1245,-1.1244,-1.1238,-1.1232,-1.1227,-1.1295,-1.1296,-1.1296,0,0,-1.1083,-1.1097,-1.1092,-1.1103,-1.1121,-1.1138,-1.1136,-1.1159,-1.1169,-1.1169,-1.1193,-1.1195,-1.1206,-1.1215,-1.1221,-1.1189,-1.1207,-1.1191,-1.1164,-1.1157,-1.1152,-1.1147,-1.1133,-1.1128,-1.1189,-1.1189,-1.1189,0,-1.1056,-1.1061,-1.1087,-1.1086,-1.1092,-1.1123,-1.1117,-1.1127,-1.1146,-1.1148,-1.1161,-1.1173,-1.1187,-1.1181,-1.1173,-1.1179,-1.1176,-1.1187,-1.115,-1.1146,-1.1143,-1.1129,-1.1124,-1.1187,-1.1187,-1.1187,-1.1187,0,-1.1027,-1.1029,-1.1023,-1.1039,-1.1045,-1.1042,-1.1066,-1.1069,-1.1085,-1.11,-1.1098,-1.1115,-1.1125,-1.1125,-1.1142,-1.1122,-1.1128,-1.1145,-1.1167,-1.1134,-1.1121,-1.1117,-1.1183,-1.1184,-1.1185,-1.1185,0,0,-1.0968,-1.0998,-1.0995,-1.1002,-1.1023,-1.1025,-1.1023,-1.1032,-1.1032,-1.1045,-1.1041,-1.1049,-1.1064,-1.1071,-1.1089,-1.1083,-1.1052,-1.1101,-1.1101,-1.1088,-1.1028,-1.1012,-1.1005,-1.1065,-1.1064,-1.1064,-1.1025,0,-1.0935,-1.0932,-1.0955,-1.0945,-1.0946,-1.0975,-1.0973,-1.0985,-1.0998,-1.1001,-1.1017,-1.102,-1.1042,-1.1046,-1.1041,-1.1057,-1.104,-1.106,-1.106,-1.106,-1.1051,-1.0999,-1.0983,-1.0946,-1.1021,-1.102,-1.1019,0,-1.0896,-1.0905,-1.0895,-1.0914,-1.0916,-1.0913,-1.0922,-1.0925,-1.0939,-1.0949,-1.0956,-1.0976,-1.0973,-1.0996,-1.0992,-1.1005,-1.1006,-1.1014,-1.1013,-1.1011,-1.1035,-1.0993,-1.0935,-1.0928,-1.1013,-1.1013,-1.1014,0,-1.085,-1.086,-1.0854,-1.086,-1.0883,-1.088,-1.089,-1.0904,-1.0908,-1.0916,-1.0918,-1.0926,-1.0929,-1.0935,-1.0955,-1.097,-1.0947,-1.0972,-1.0953,-1.0952,-1.0945,-1.0944,-1.0882,-1.0951,-1.0951,-1.0951,-1.0952,0,-1.0809,-1.0801,-1.0833,-1.083,-1.0821,-1.0847,-1.0838,-1.085,-1.0863,-1.0861,-1.0888,-1.0885,-1.0914,-1.0915,-1.0931,-1.0923,-1.0926,-1.0932,-1.0936,-1.0928,-1.0926,-1.0927,-1.0928,-1.095,-1.095,-1.0951,-1.0951,0,-1.0755,-1.0777,-1.0772,-1.0795,-1.08,-1.0792,-1.0811,-1.0807,-1.0823,-1.082,-1.0821,-1.0845,-1.0847,-1.0869,-1.0876,-1.0887,-1.087,-1.0881,-1.0865,-1.0867,-1.0845,-1.0846,-1.0779,-1.077,-1.0848,-1.0847,-1.0846,0,-1.0726,-1.072,-1.0742,-1.0742,-1.075,-1.0751,-1.0754,-1.078,-1.0782,-1.0796,-1.079,-1.0794,-1.0798,-1.0799,-1.0817,-1.0821,-1.083,-1.0806,-1.0831,-1.0821,-1.0825,-1.0823,-1.0821,-1.08,-1.0799,-1.0798,-1.0798,0,-1.0671,-1.0682,-1.0685,-1.0691,-1.0694,-1.0701,-1.0709,-1.0708,-1.0736,-1.0736,-1.0738,-1.0741,-1.0747,-1.0749,-1.0757,-1.0766,-1.0785,-1.079,-1.0785,-1.0775,-1.0764,-1.0766,-1.0847,-1.0791,-1.0792,-1.0792,-1.0792,-1.0793,-1.0626,-1.0621,-1.0634,-1.0637,-1.0645,-1.0652,-1.0649,-1.0663,-1.0665,-1.0672,-1.0687,-1.0685,-1.0698,-1.071,-1.0717,-1.0715,-1.0727,-1.0721,-1.0719,-1.0716,-1.071,-1.0767,-1.0717,-1.0718,-1.0718,-1.0718,-1.0718,0,-1.0569,-1.0579,-1.0581,-1.0591,-1.0592,-1.0611,-1.062,-1.062,-1.0618,-1.0628,-1.0631,-1.0631,-1.0633,-1.065,-1.0654,-1.0649,-1.0658,-1.0649,-1.0647,-1.0648,-1.0701,-1.0703,-1.0642,-1.0642,-1.0642,-1.0642,-1.0642,-1.0642,-1.054,-1.0531,-1.0543,-1.0538,-1.0548,-1.0546,-1.0549,-1.0554,-1.0562,-1.0561,-1.0562,-1.0574,-1.0586,-1.059,-1.0592,-1.0597,-1.0596,-1.0583,-1.059,-1.0638,-1.0645,-1.0652,-1.0654,-1.0583,-1.0583,-1.0537,-1.0537,-1.0537]},{"header":{"parameterUnit":"m.s-1","parameterCategory":1,"la1":30.2991,"la2":30.254,"lo1":-89.0895,"lo2":-89.0444,"dx":0.0017,"dy":0.0017,"nx":28,"ny":28,"refTime":"2022-12-12T03:00:00:Z","depth":0,"parameterNumber":3,"parameterNumberName":"V-component_of_WINDS"},"data":[0,0,0,0,0,0,0,0,0,0,0,0,0,0,0,0,0,0,0,0,0,0,0,0,0,0,0,0,0,0,0,0,0,0,0,0,0,0,0,0,0,0,0,0,0,0,0,0,0,0,0,0,0,0,0,0,0,0,0.0469,0.0469,0,0.0531,0.0531,0.0532,0.0541,0.054,0.0539,0.0539,0.0609,0.0611,0.0613,0,0,0,0,0,0,0,0,0,0,0,0,0,0.0366,0.0367,0.0469,0.0469,0.047,0.053,0.0531,0.0532,0.0541,0.054,0.0539,0.0538,0.0608,0.0611,0.0614,0,0,0,0,0,0,0,0,0,0,0,0,0,0.0417,0.0368,0.0468,0.0481,0.0483,0.053,0.0531,0.0532,0.0541,0.054,0.0539,0.0538,0.0607,0.061,0.0614,0.0654,0,0,0.0625,0.0627,0,0,0,0,0,0,0,0,0.0414,0.0421,0.0479,0.0481,0.0483,0.0527,0.0521,0.0574,0.0541,0.0519,0.0539,0.0538,0.0583,0.0588,0.0602,0.0658,0.0661,0.0625,0.0628,0.0629,0.063,0,0,0,0,0,0,0,0.0411,0.0419,0.0493,0.048,0.0482,0.0487,0.0493,0.0531,0.0555,0.0521,0.0522,0.0529,0.0584,0.0598,0.0604,0.0662,0.0625,0.0629,0.0631,0.0632,0.0757,0.0758,0,0,0,0,0,0,0.0404,0.0415,0.0491,0.0495,0.0445,0.0489,0.0496,0.0514,0.0555,0.056,0.0529,0.0529,0.0593,0.0599,0.0606,0.0657,0.0629,0.0633,0.0635,0.0756,0.0757,0.0758,0,0,0,0,0,0,0.0401,0.041,0.0489,0.0456,0.0466,0.0492,0.0511,0.0515,0.053,0.0561,0.0566,0.0539,0.0592,0.0601,0.0642,0.066,0.0634,0.0638,0.0754,0.0756,0.0758,0.0759,0,0,0,0,0,0,0.0398,0.0409,0.0423,0.0456,0.0467,0.0521,0.0512,0.0517,0.0536,0.0535,0.0572,0.0577,0.0592,0.0637,0.0646,0.0664,0.064,0.0753,0.0755,0.0757,0.0758,0.0761,0.0763,0,0,0,0,0,0.0395,0.0422,0.0424,0.0433,0.0484,0.0522,0.0529,0.0544,0.0537,0.0552,0.0573,0.0576,0.0657,0.0641,0.0651,0.0671,0.0752,0.0754,0.0757,0.0756,0.076,0.0763,0,0,0,0,0,0,0.0392,0.0426,0.0428,0.0466,0.0491,0.0524,0.0543,0.0547,0.0576,0.0575,0.0595,0.0603,0.0644,0.0662,0.0644,0.0714,0.0704,0.0709,0.07,0.0704,0.0706,0.0701,0.0643,0,0,0,0,0,0.0396,0.0421,0.0451,0.0482,0.0494,0.0516,0.0533,0.0543,0.057,0.0581,0.0604,0.0633,0.0665,0.0686,0.0717,0.0761,0.077,0.078,0.0783,0.0785,0.0788,0.0816,0.0821,0.0767,0.0767,0.0767,0,0,0.0404,0.0426,0.0441,0.0482,0.0502,0.053,0.0525,0.0555,0.0577,0.0586,0.0626,0.0645,0.0679,0.0722,0.0742,0.0738,0.0806,0.0788,0.0789,0.0792,0.0819,0.0824,0.0828,0.0768,0.0768,0.0768,0,0,0.0433,0.0451,0.0479,0.05,0.053,0.0545,0.0552,0.0585,0.0597,0.0637,0.0645,0.0674,0.0728,0.0752,0.0771,0.0812,0.0817,0.0822,0.0836,0.0862,0.0867,0.0871,0.0887,0.0892,0.0826,0.0826,0.0826,0,0.0439,0.048,0.0494,0.0524,0.0542,0.0551,0.0581,0.0602,0.0642,0.0656,0.065,0.072,0.0743,0.0793,0.0803,0.0818,0.0829,0.0817,0.0865,0.0869,0.0873,0.0888,0.0894,0.0826,0.0826,0.0826,0.0826,0,0.0487,0.0516,0.0536,0.0572,0.0593,0.0623,0.0645,0.0665,0.0674,0.0691,0.0733,0.0762,0.0799,0.0812,0.0821,0.0865,0.0861,0.086,0.0851,0.0878,0.0893,0.0899,0.0827,0.0827,0.0827,0.0826,0,0,0.0514,0.0559,0.0566,0.0584,0.0619,0.0643,0.0675,0.071,0.0728,0.0757,0.0786,0.0832,0.0832,0.0854,0.0867,0.0889,0.0922,0.0886,0.0887,0.0892,0.0974,0.0974,0.0981,0.0926,0.0927,0.0928,0.0971,0,0.0548,0.0602,0.0617,0.0664,0.0692,0.0702,0.0731,0.0757,0.0774,0.0803,0.0824,0.0857,0.0853,0.0867,0.089,0.0913,0.0939,0.091,0.0956,0.0957,0.0946,0.0988,0.0988,0.1027,0.0977,0.0978,0.0979,0,0.0593,0.062,0.067,0.0703,0.0716,0.0741,0.0775,0.0802,0.0834,0.0845,0.0871,0.0881,0.0919,0.0908,0.0961,0.0941,0.0961,0.0976,0.0978,0.0982,0.0969,0.0994,0.104,0.1046,0.0988,0.0987,0.0987,0,0.0608,0.0658,0.0695,0.0709,0.0749,0.0767,0.0785,0.0816,0.0837,0.0868,0.0883,0.0919,0.0939,0.0968,0.099,0.098,0.1042,0.1033,0.1055,0.1054,0.1066,0.1065,0.1116,0.1079,0.1079,0.1079,0.1079,0,0.0644,0.0674,0.0702,0.0724,0.076,0.0778,0.0814,0.0833,0.086,0.0889,0.0901,0.0928,0.0955,0.0987,0.1005,0.1047,0.1056,0.1068,0.1073,0.1067,0.1066,0.108,0.1078,0.1081,0.108,0.108,0.108,0,0.0666,0.0686,0.0727,0.0761,0.0771,0.0796,0.0827,0.0851,0.0869,0.0906,0.0916,0.0946,0.0984,0.1009,0.1058,0.107,0.1117,0.112,0.1105,0.1107,0.1128,0.1126,0.119,0.12,0.1156,0.1156,0.1157,0,0.0687,0.071,0.0748,0.0766,0.0784,0.0815,0.0836,0.0857,0.0879,0.0919,0.0938,0.0977,0.1009,0.107,0.1098,0.1137,0.1142,0.1162,0.1148,0.1142,0.1143,0.1141,0.1145,0.1164,0.1164,0.1165,0.1165,0,0.0723,0.0732,0.076,0.0794,0.0818,0.0846,0.0874,0.089,0.0916,0.0941,0.0979,0.1004,0.1054,0.1094,0.1135,0.1157,0.1167,0.1169,0.1176,0.1171,0.1161,0.1167,0.1111,0.1167,0.1167,0.1167,0.1167,0.1167,0.0745,0.0767,0.0797,0.083,0.0853,0.0879,0.0903,0.0925,0.0957,0.0997,0.1009,0.105,0.1084,0.1141,0.1164,0.1198,0.1196,0.1206,0.1209,0.1211,0.1212,0.1156,0.1206,0.1206,0.1206,0.1206,0.1206,0,0.0782,0.0802,0.0832,0.087,0.0896,0.0901,0.0933,0.0956,0.099,0.1021,0.1052,0.1098,0.1137,0.1168,0.1209,0.1231,0.1236,0.1241,0.124,0.1245,0.1211,0.12,0.1236,0.1236,0.1236,0.1236,0.1236,0.1236,0.0804,0.0841,0.0854,0.0905,0.0926,0.0963,0.0982,0.1007,0.1032,0.1081,0.1113,0.1133,0.1165,0.1209,0.1246,0.1255,0.127,0.1273,0.1283,0.1251,0.1247,0.1244,0.1234,0.1276,0.1276,0.1315,0.1315,0.1315]}]]